Flag for Italy Weather past 2 weeks in Modena, Italy

Now
72 °F

Clear.


Feels Like: 72 °F
Forecast: 62 / 85 °F
Wind: 3 mph from East

Location: Bologna / Borgo Panigale

Current Time: Jul 31, 2015 at 11:46:32 PM

Latest Report: Jul 31, 2015 at 10:50 PM


Visibility: 10 mi

Pressure: 29.95 "Hg

Humidity: 78%

Dew point: 64 °F

Location of ModenaLocation

Historic Weather in Modena — Graph

°F

Modena temperature yesterday

Maximum temperature yesterday: 86 °F (at 2:50 PM)
Minimum temperature yesterday: 68 °F (at 5:20 AM)
Average temperature yesterday: 77 °F

Past Weeks' High & Low Weather Summary

 TemperatureHumidityPressure
High100 °F (Jul 22, 4:20 PM)94% (Jul 31, 9:20 AM)30.04 "Hg (Jul 31, 9:20 AM)
Low66 °F (Jul 28, 5:20 AM)21% (Jul 28, 7:50 PM)29.59 "Hg (Jul 27, 4:50 PM)
Average83 °F52%29.82 "Hg
* Reported Jul 16 10:20 PM — Jul 31 10:20 PM, Modena, Weather by CustomWeather, © 2015

Note: Actual official high and low records may vary slightly from our data, if they occured in-between our weather recording intervals... More about our weather records

Advertising

Modena weather history for previous 24 hours

 ConditionsComfort  
Time TempWeatherWind HumidityBarometerVisibility
10:20 PM
Fri, Jul 31
72 °FClear.5 mph78%29.95 "Hg10 mi
9:50 PM72 °FClear.5 mph78%29.95 "Hg10 mi
9:20 PM73 °FSunny.5 mph74%29.95 "Hg10 mi
8:50 PM73 °FSunny.6 mph74%29.92 "Hg10 mi
8:20 PM75 °FSunny.6 mph65%29.92 "Hg10 mi
7:50 PM77 °FPassing clouds.7 mph65%29.92 "HgN/A
7:20 PM77 °FPassing clouds.8 mph61%29.92 "HgN/A
6:50 PM79 °FPassing clouds.8 mph61%29.92 "HgN/A
6:20 PM79 °FPassing clouds.9 mph61%29.92 "HgN/A
5:50 PM77 °FPassing clouds.8 mph65%29.92 "HgN/A
5:20 PM79 °FPassing clouds.8 mph61%29.92 "HgN/A
4:50 PM79 °FPassing clouds.8 mph61%29.95 "HgN/A
4:20 PM77 °FBroken clouds.9 mph69%29.95 "HgN/A
3:50 PM77 °FPartly sunny.8 mph65%29.95 "HgN/A
3:20 PM77 °FPartly sunny.2 mph65%29.95 "HgN/A
2:50 PM75 °FPartly sunny.3 mph65%29.95 "HgN/A
2:20 PM73 °FPartly sunny.5 mph74%29.95 "HgN/A
1:50 PM73 °FPartly sunny.6 mph69%29.95 "HgN/A
1:20 PM75 °FPartly sunny.5 mph65%29.95 "HgN/A
12:50 PM75 °FPartly sunny.1 mph69%29.95 "HgN/A
12:20 PM73 °FPartly sunny.2 mph74%29.95 "HgN/A
11:50 AM72 °FPartly sunny.3 mph78%29.95 "HgN/A
11:20 AM70 °FPartly sunny.3 mph88%29.95 "HgN/A
10:50 AM68 °FFog.2 mph94%29.95 "Hg2 mi
10:20 AM68 °FFog.No wind94%29.95 "Hg2 mi
9:50 AM68 °FDrizzle. Fog.1 mph88%29.95 "Hg3 mi
9:20 AM66 °FPartly sunny.2 mph94%29.95 "HgN/A
8:50 AM68 °FPartly sunny.5 mph88%29.95 "HgN/A
8:20 AM66 °FPartly sunny.5 mph88%29.92 "HgN/A
7:50 AM66 °FPartly sunny.3 mph88%29.92 "HgN/A
7:20 AM66 °FPartly sunny.5 mph88%29.89 "HgN/A
6:50 AM66 °FPassing clouds.5 mph88%29.89 "HgN/A
5:50 AM68 °FPassing clouds.3 mph83%29.89 "HgN/A
5:20 AM66 °FPassing clouds.3 mph88%29.86 "HgN/A
4:50 AM66 °FPassing clouds.5 mph88%29.86 "HgN/A
4:20 AM68 °FPassing clouds.10 mph83%29.86 "HgN/A
3:50 AM68 °FPassing clouds.5 mph83%29.86 "HgN/A
3:20 AM70 °FPassing clouds.7 mph78%29.86 "HgN/A
2:50 AM70 °FPassing clouds.8 mph78%29.83 "HgN/A
2:20 AM70 °FPassing clouds.5 mph78%29.83 "HgN/A
1:50 AM72 °FPassing clouds.8 mph78%29.83 "HgN/A
1:20 AM72 °FPassing clouds.8 mph83%29.80 "HgN/A
12:50 AM73 °FPassing clouds.5 mph78%29.80 "HgN/A
12:20 AM73 °FPassing clouds.2 mph78%29.80 "HgN/A
11:50 PM
Thu, Jul 30
73 °FPassing clouds.3 mph78%29.80 "HgN/A
11:20 PM73 °FPassing clouds.2 mph78%29.80 "HgN/A
Weather by CustomWeather, © 2015

See weather overviewHow to use our weather pages